SCP
-0 -0 -0 -0 -0 -0 0 0 0 0 0 0 0 0 0 0 0 0 0 0 0 0 0 0 0 0 0 0 0 0 0 0 0 0 0 0 0 0 0 0 0 0 0 0
-0 -0 -0 -0 -0 0 0 0 0 0 0 0 0 0 0 0 0 0 0 0 0 0 0 0 0 0 0 0 0 0 0 0 0 0 0 0 0 0 0 0 0 0 0 0
-0 -0 -0 -0 -0 0 0 0 0 0 0 0 0 0 0 0 0 0 0 0 0 0 0 0 0 0 0 0 0 0 0 0 0 0 0 0 0 0 0 0 0 0 0 0
-0 -0 -0 -0 -0 0 0 0 0 0 0 0 0 0 0 0 0 0 0 0 0 0 0 0 0 0 0 0 0 0 0 0 0 0 0 0 0 0 0 0 0 0 0 0
0 -0 -0 -0 -0 -0 0 0 0 0 0 0 0 0 0 0 0 0 0 0 0 0 0 0 0 0 0 0 0 0 0 0 0 0 0 0 0 0 0 0 0 0 0 0
0 0 0 -0 -0 0 0 0 0 0 0 0 0 0 0 0 0 0 0 0 0 0 0 0 0 0 0 0 0 0 0 0 0 0 0 0 0 0 0 0 0 0 0 0
0 0 0 0 0 0 0 0 0 0 0 0 0 0 0 0 0 0 0 0 0 0 0 0 0 0 0 0 0 0 0 0 0 0 0 0 0 0 0 0 0 0 0 0
0 0 0 0 0 0 0 0 0 0 0 0 0 0 0 0 0 0 0 0 0 0 0 0 0 0 0 0 0 0 0 0 0 0 0 0 0 0 0 0 0 0 0 0
0 0 0 0 0 0 0 0 0 0 0 0 0 0 0 0 0 0 0 0 0 0 0 0 0 0 0 0 0 0 0 0 0 0 0 0 0 0 0 0 0 0 0 0
0 0 0 0 0 0 0 0 0 0 0 0 0 0 0 0 0 0 0 0 0 0 0 0 0 0 0 0 0 0 0 0 0 0 0 0 0 0 0 0 0 0 0 0
0 0 0 0 0 0 0 0 0 0 0 0 0 0 0 0 0 0 0 0 0 0 0 0 0 0 0 0 0 0 0 0 0 0 0 0 0 0 0 0 0 0 0 0
0 0 0 0 0 0 0 0 0 0 0 0 0 0 0 0 0 0 0 0 0 0 0 0 0 0 0 0 0 0 0 0 0 0 0 0 0 0 0 0 0 0 0 0
0 0 0 0 0 0 0 0 0 0 0 0 0 0 0 0 -0 0 0 0 0 0 0 0 0 0 0 0 0 0 0 0 0 0 0 0 0 0 0 0 0 0 0 0
0 0 0 0 0 0 0 0 0 0 0 0 0 0 0 0 0 0 0 0 0 0 0 0 0 0 0 0 0 0 0 0 0 0 0 0 0 0 0 0 0 0 0 0
0 0 0 0 0 0 0 0 0 0 0 0 0 0 0 0 0 0 0 0 0 0 0 0 0 0 0 0 0 0 0 0 0 0 0 0 0 0 0 0 0 0 0 0
0 0 0 0 0 0 0 0 0 -0 0 0 0 0 0 0 0 0 0 0 0 0 0 0 0 0 0 0 0 0 0 0 0 0 0 0 0 0 0 0 0 0 0 0
0 0 0 0 0 0 0 0 0 0 -0 0 0 0 0 -0 0 0 0 0 0 0 0 0 0 0 0 0 0 0 0 0 0 0 0 0 0 0 0 0 0 0 0 0
0 0 0 0 0 0 0 0 0 -0 -0 0 0 0 0 0 0 0 0 0 0 0 0 0 0 0 0 0 0 0 0 0 0 0 0 0 0 0 0 0 0 0 0 0
0 0 0 0 0 0 0 0 0 0 0 0 0 0 0 0 0 0 0 0 0 0 0 0 0 0 0 0 0 0 0 0 0 0 0 0 0 0 -0 0 0 0 0 0
0 0 0 0 0 0 0 -0 0 0 -0 0 0 0 0 0 0 0 0 0 0 0 0 0 0 0 0 0 0 0 0 0 0 0 0 0 0 0 0 0 0 0 0 0
0 0 0 0 0 0 0 0 0 0 0 0 0 0 0 0 0 0 0 0 0 0 0 0 0 0 0 0 0 0 0 0 0 0 0 0 0 0 0 0 0 0 0 0
0 0 0 0 0 0 0 0 0 0 0 0 0 0 0 0 0 0 0 0 0 0 0 0 0 0 0 -0 0 0 0 -0 0 0 -0 -0 0 -0 -0 -0 -0 -0 -0 0
0 0 0 0 0 0 0 0 0 0 0 0 0 0 0 0 0 0 0 0 0 0 0 0 0 0 0 -0 -0 -0 -0 0 -0 -0 0 -0 -0 -0 -0 -0 -0 -0 -0 -0
0 0 0 -0 0 -0 0 0 0 0 0 0 0 0 0 0 0 0 0 0 0 0 0 0 0 0 0 -0 -0 -0 -0 -0 -0 -0 -0 -0 -0 0 0 0 0 -0 0 0
0 0 -0 -0 -0 -0 -0 -0 0 0 0 0 0 0 0 0 0 0 0 0 0 0 0 0 0 0 0 -0 -0 -0 -0 -0 0 0 0 -0 -0 -0 -0 0 -0 0 -0 0
0 0 -0 0 0 -0 0 0 0 0 0 0 0 0 0 0 0 0 0 0 0 0 0 0 0 0 0 -0 -0 -0 -0 0 0 0 -0 0 -0 -0 -0 0 -0 -0 0 -0
0 0 0 -0 0 -0 0 0 0 0 0 0 0 0 0 0 0 0 0 0 0 0 0 0 0 0 0 0 -0 -0 -0 -0 0 0 0 0 -0 -0 -0 -0 -0 -0 -0 -0
Wind_Speed_500mb
49 54 56 54 44 27 13 4 6 10 21 18 7 13 2 3 2 3 1 3 4 9 10 19 18 21 3 3 9 13 22 14 20 26 12 5 17 21 19 18 17 15 16 24
48 52 55 53 44 29 5 1 6 5 7 10 13 9 10 5 4 5 2 3 5 2 4 9 8 9 6 8 7 9 13 17 21 24 17 18 18 20 21 24 20 26 24 18
47 50 52 51 40 26 2 3 8 7 4 5 6 14 10 11 9 10 5 2 3 8 10 1 7 13 6 4 5 9 6 25 23 25 15 9 8 15 13 20 20 24 25 28
42 48 50 49 39 25 5 8 6 2 8 8 6 5 3 12 7 4 5 6 1 5 11 11 10 6 10 9 3 5 11 25 25 27 22 22 26 29 29 31 28 32 33 34
37 44 47 48 42 18 13 6 3 5 7 4 8 3 4 5 7 6 6 6 5 5 12 10 6 10 8 7 3 9 7 19 15 30 27 28 35 34 34 36 35 39 39 41
32 37 42 48 47 29 17 12 9 6 2 5 9 4 5 6 3 3 6 5 10 12 8 16 17 17 19 20 13 13 13 18 17 34 30 29 34 36 44 42 39 35 33 23
27 29 34 38 45 47 34 22 9 8 6 1 6 6 1 5 1 5 4 6 7 9 19 24 22 25 29 27 26 28 20 18 20 27 26 39 29 25 28 31 31 25 15 15
23 23 26 30 31 35 38 40 10 7 6 11 11 6 3 4 5 8 11 7 6 15 14 12 13 20 24 35 36 32 31 23 23 24 25 33 38 20 18 16 18 10 10 5
22 19 20 23 25 25 24 34 28 7 3 9 4 2 2 1 2 10 7 2 8 7 12 12 15 12 11 10 8 12 26 23 24 23 29 31 3 16 12 12 28 20 9 8
23 17 15 17 21 23 20 22 25 8 3 4 1 4 7 4 3 3 5 0 7 8 9 14 17 19 7 14 19 11 19 23 31 27 29 25 7 7 6 21 5 17 15 17
22 17 12 12 17 22 20 15 22 12 4 1 5 0 1 1 3 6 6 8 8 8 9 6 6 12 6 12 21 16 19 18 21 26 32 39 17 5 17 16 19 23 22 18
21 17 12 6 10 17 18 10 23 20 6 1 8 8 10 8 2 3 2 7 4 7 5 3 6 11 7 13 17 10 19 20 18 17 9 12 9 12 12 23 23 18 25 28
20 17 13 5 5 13 15 13 20 13 4 4 6 6 4 4 11 7 6 5 3 3 4 7 5 11 11 15 13 20 12 15 16 26 27 34 22 29 32 28 24 34 39 39
19 15 11 6 3 10 14 10 10 17 3 5 8 3 10 10 12 14 12 2 1 1 6 12 8 10 8 13 17 17 20 20 21 30 38 50 55 49 43 45 46 47 49 52
18 12 7 4 2 9 10 7 10 19 7 8 3 2 5 5 8 9 9 13 11 10 11 11 12 17 14 24 21 20 31 29 22 22 36 35 44 53 51 55 58 57 55 54
15 8 3 3 1 4 4 3 5 11 18 3 1 0 4 4 5 8 11 12 14 14 13 15 15 24 17 13 16 21 21 22 27 37 45 52 55 57 58 62 51 42 43 47
10 3 2 2 3 1 3 1 2 6 14 4 4 8 6 7 7 8 9 11 11 15 16 19 28 24 8 12 25 45 37 22 25 30 35 45 48 52 52 50 54 57 56 54
5 4 4 3 2 8 10 6 0 9 4 1 4 5 10 5 7 6 7 9 7 11 11 10 18 19 19 9 17 3 11 23 32 34 35 46 54 56 57 57 59 60 59 56
7 6 2 9 8 2 2 3 4 4 2 3 5 4 7 3 3 4 6 6 7 10 10 14 8 11 11 14 15 13 20 24 40 47 51 54 55 56 55 54 54 55 57 56
5 7 5 6 2 7 3 5 2 2 5 5 8 3 3 3 1 2 7 7 6 7 4 7 9 16 14 20 16 22 30 40 44 51 53 50 62 58 56 55 54 58 59 55
3 1 2 8 2 1 4 6 6 4 5 9 8 6 5 1 9 8 2 6 3 5 3 6 5 4 6 13 19 27 37 42 45 45 49 52 58 63 55 58 64 62 66 60
1 3 3 4 4 6 8 6 7 7 5 10 7 3 8 3 4 7 6 6 2 9 2 6 6 1 14 19 27 34 40 43 44 45 67 61 63 59 67 73 70 71 66 61
5 4 6 5 8 3 10 11 6 6 12 13 13 6 4 4 7 7 5 9 9 5 6 6 4 17 23 27 33 37 40 43 45 67 56 49 56 56 62 71 70 61 63 52
4 6 4 9 9 10 8 9 5 10 5 7 9 6 9 8 10 5 8 5 5 6 5 8 7 18 20 29 33 37 39 40 48 60 57 53 54 66 70 48 45 41 33 35
6 7 7 11 15 9 6 6 8 7 6 9 8 9 12 7 8 4 5 6 6 9 9 10 17 18 23 31 33 35 37 42 40 69 58 54 62 68 43 31 25 19 12 12
7 11 9 15 12 15 17 19 18 11 10 7 10 6 6 10 6 10 13 6 9 10 8 19 22 20 25 29 30 30 33 34 38 56 46 55 75 57 41 35 38 31 24 18
8 12 20 26 23 19 16 10 12 8 11 7 6 4 6 3 8 8 6 8 13 23 31 30 21 20 24 22 23 23 29 30 33 49 50 33 42 40 46 52 45 36 36 33
Wind_Direction_500mb
359 358 355 353 354 1 164 211 191 174 143 186 246 211 198 206 98 74 194 277 318 247 203 213 217 197 326 30 217 190 214 244 237 238 118 305 282 278 246 255 236 236 287 279
359 360 359 356 356 3 136 197 102 160 190 209 190 153 144 63 177 54 320 173 337 314 187 217 232 179 107 30 223 205 180 229 240 225 190 206 231 227 247 264 272 263 275 270
358 1 2 359 357 2 86 279 183 139 78 30 255 179 171 147 61 75 52 47 235 221 211 107 174 182 132 68 32 8 233 254 252 270 308 20 207 203 221 279 271 270 259 282
358 2 5 6 2 1 95 17 70 352 158 103 119 230 244 185 148 53 29 170 86 296 239 231 215 225 187 168 68 230 271 256 258 268 281 280 276 277 270 260 259 271 289 296
359 4 8 13 14 13 57 28 331 78 94 120 193 171 106 206 134 333 151 258 327 303 265 325 311 315 236 280 217 255 247 262 268 263 265 268 266 263 262 261 266 272 274 277
358 6 11 17 27 45 51 42 44 334 132 160 225 89 130 129 271 103 82 332 282 245 44 320 306 289 288 285 287 268 268 271 242 263 269 274 267 258 251 254 262 273 278 309
355 4 13 20 28 38 40 39 38 297 105 252 68 139 152 182 233 289 223 307 274 28 316 292 266 262 258 257 250 245 254 252 270 267 276 255 266 302 313 287 281 292 282 272
351 357 10 20 25 32 37 33 42 1 107 98 126 135 127 198 196 238 262 256 297 313 291 266 256 243 249 247 242 239 245 251 258 251 243 256 268 258 242 271 266 186 270 249
350 350 0 16 22 24 34 29 39 42 245 79 69 153 15 283 156 165 178 206 304 269 258 223 241 241 244 224 209 269 244 228 251 239 250 261 73 46 26 277 257 33 355 315
345 347 350 4 15 21 32 25 30 29 53 110 110 39 360 332 290 293 160 29 189 211 231 242 249 253 210 251 238 188 212 221 229 232 251 254 348 12 321 252 6 347 336 321
341 341 346 354 8 16 27 13 24 43 339 154 176 89 193 268 297 303 85 212 185 209 240 271 239 266 265 280 264 286 244 225 233 237 259 260 35 227 264 5 332 323 317 311
339 335 334 345 8 11 18 13 2 359 127 158 239 226 241 212 209 344 72 30 60 30 272 226 285 243 234 279 269 165 255 286 300 298 274 80 30 10 338 319 309 321 320 307
337 331 326 323 359 7 9 6 359 18 352 152 144 126 98 153 203 197 283 109 78 115 9 332 305 264 289 270 258 277 255 264 269 278 259 278 317 296 298 302 301 298 295 292
331 331 318 295 330 5 3 8 20 30 352 293 127 197 305 256 221 216 220 228 48 295 280 274 276 274 257 281 304 288 285 299 273 274 281 287 282 289 297 301 294 292 292 286
325 321 306 255 310 359 9 63 84 41 34 330 356 93 119 85 138 181 207 221 247 268 246 236 254 267 286 266 264 272 266 265 264 275 297 293 288 289 289 288 293 292 285 280
317 311 262 210 265 355 76 244 8 9 27 3 261 282 174 199 196 224 229 234 237 243 263 274 264 264 280 269 265 278 289 278 292 298 293 289 290 286 283 282 282 287 290 288
308 289 254 272 326 119 212 327 258 0 20 15 246 162 180 210 227 222 219 219 233 245 265 255 272 275 214 269 267 268 280 307 309 294 296 289 286 288 295 292 287 287 285 283
295 290 299 332 350 117 86 126 170 327 40 41 285 134 175 187 191 206 207 228 229 229 264 281 262 279 229 253 257 287 310 308 298 294 291 289 290 288 285 285 285 283 280 279
295 278 154 103 106 117 209 271 262 183 175 296 261 264 104 191 224 284 225 253 254 163 249 246 252 248 222 267 299 269 322 311 301 301 296 297 298 288 286 289 292 288 283 277
103 125 88 152 161 207 269 24 167 192 217 224 250 307 138 294 331 237 281 205 273 272 201 294 239 257 306 346 327 308 312 313 308 308 303 303 301 307 290 285 290 291 286 282
117 99 107 168 338 156 237 220 225 218 221 209 228 245 298 245 287 330 292 323 303 267 137 275 250 296 304 297 302 312 318 317 310 305 304 305 300 297 286 291 289 287 282 275
198 204 187 199 231 219 248 203 155 214 231 173 211 182 216 240 243 260 228 268 211 256 70 259 257 16 340 326 321 320 322 318 319 320 313 304 306 298 299 297 292 289 280 270
236 203 206 194 176 256 224 189 181 207 182 185 188 189 233 202 221 241 259 234 230 349 235 250 299 327 312 318 319 322 323 326 329 333 327 319 311 314 309 302 292 285 274 261
248 220 275 228 195 230 214 211 96 99 182 183 230 200 198 188 218 217 251 249 253 253 261 248 279 342 313 321 323 323 323 331 336 331 326 329 328 323 324 314 307 300 275 245
250 222 239 229 244 261 247 253 243 229 245 260 243 235 212 184 244 198 293 238 245 222 240 284 333 320 316 322 326 324 326 330 332 349 343 342 333 335 342 342 332 331 319 259
238 233 258 248 265 250 231 237 247 240 234 250 242 238 236 219 235 189 218 231 227 257 289 307 318 314 318 319 318 321 332 335 343 359 345 354 353 13 19 27 30 25 12 344
233 240 243 260 284 281 283 265 271 219 233 254 218 213 220 220 239 227 219 242 302 325 311 311 311 309 315 316 313 326 338 334 341 351 356 7 13 6 12 17 16 12 15 8
Wind_Speed_850mb
49 54 56 54 44 27 13 4 6 10 21 18 7 13 2 3 2 3 1 3 4 9 10 19 18 21 3 3 9 13 22 14 20 26 12 5 17 21 19 18 17 15 16 24
48 52 55 53 44 29 5 1 6 5 7 10 13 9 10 5 4 5 2 3 5 2 4 9 8 9 6 8 7 9 13 17 21 24 17 18 18 20 21 24 20 26 24 18
47 50 52 51 40 26 2 3 8 7 4 5 6 14 10 11 9 10 5 2 3 8 10 1 7 13 6 4 5 9 6 25 23 25 15 9 8 15 13 20 20 24 25 28
42 48 50 49 39 25 5 8 6 2 8 8 6 5 3 12 7 4 5 6 1 5 11 11 10 6 10 9 3 5 11 25 25 27 22 22 26 29 29 31 28 32 33 34
37 44 47 48 42 18 13 6 3 5 7 4 8 3 4 5 7 6 6 6 5 5 12 10 6 10 8 7 3 9 7 19 15 30 27 28 35 34 34 36 35 39 39 41
32 37 42 48 47 29 17 12 9 6 2 5 9 4 5 6 3 3 6 5 10 12 8 16 17 17 19 20 13 13 13 18 17 34 30 29 34 36 44 42 39 35 33 23
27 29 34 38 45 47 34 22 9 8 6 1 6 6 1 5 1 5 4 6 7 9 19 24 22 25 29 27 26 28 20 18 20 27 26 39 29 25 28 31 31 25 15 15
23 23 26 30 31 35 38 40 10 7 6 11 11 6 3 4 5 8 11 7 6 15 14 12 13 20 24 35 36 32 31 23 23 24 25 33 38 20 18 16 18 10 10 5
22 19 20 23 25 25 24 34 28 7 3 9 4 2 2 1 2 10 7 2 8 7 12 12 15 12 11 10 8 12 26 23 24 23 29 31 3 16 12 12 28 20 9 8
23 17 15 17 21 23 20 22 25 8 3 4 1 4 7 4 3 3 5 0 7 8 9 14 17 19 7 14 19 11 19 23 31 27 29 25 7 7 6 21 5 17 15 17
22 17 12 12 17 22 20 15 22 12 4 1 5 0 1 1 3 6 6 8 8 8 9 6 6 12 6 12 21 16 19 18 21 26 32 39 17 5 17 16 19 23 22 18
21 17 12 6 10 17 18 10 23 20 6 1 8 8 10 8 2 3 2 7 4 7 5 3 6 11 7 13 17 10 19 20 18 17 9 12 9 12 12 23 23 18 25 28
20 17 13 5 5 13 15 13 20 13 4 4 6 6 4 4 11 7 6 5 3 3 4 7 5 11 11 15 13 20 12 15 16 26 27 34 22 29 32 28 24 34 39 39
19 15 11 6 3 10 14 10 10 17 3 5 8 3 10 10 12 14 12 2 1 1 6 12 8 10 8 13 17 17 20 20 21 30 38 50 55 49 43 45 46 47 49 52
18 12 7 4 2 9 10 7 10 19 7 8 3 2 5 5 8 9 9 13 11 10 11 11 12 17 14 24 21 20 31 29 22 22 36 35 44 53 51 55 58 57 55 54
15 8 3 3 1 4 4 3 5 11 18 3 1 0 4 4 5 8 11 12 14 14 13 15 15 24 17 13 16 21 21 22 27 37 45 52 55 57 58 62 51 42 43 47
10 3 2 2 3 1 3 1 2 6 14 4 4 8 6 7 7 8 9 11 11 15 16 19 28 24 8 12 25 45 37 22 25 30 35 45 48 52 52 50 54 57 56 54
5 4 4 3 2 8 10 6 0 9 4 1 4 5 10 5 7 6 7 9 7 11 11 10 18 19 19 9 17 3 11 23 32 34 35 46 54 56 57 57 59 60 59 56
7 6 2 9 8 2 2 3 4 4 2 3 5 4 7 3 3 4 6 6 7 10 10 14 8 11 11 14 15 13 20 24 40 47 51 54 55 56 55 54 54 55 57 56
5 7 5 6 2 7 3 5 2 2 5 5 8 3 3 3 1 2 7 7 6 7 4 7 9 16 14 20 16 22 30 40 44 51 53 50 62 58 56 55 54 58 59 55
3 1 2 8 2 1 4 6 6 4 5 9 8 6 5 1 9 8 2 6 3 5 3 6 5 4 6 13 19 27 37 42 45 45 49 52 58 63 55 58 64 62 66 60
1 3 3 4 4 6 8 6 7 7 5 10 7 3 8 3 4 7 6 6 2 9 2 6 6 1 14 19 27 34 40 43 44 45 67 61 63 59 67 73 70 71 66 61
5 4 6 5 8 3 10 11 6 6 12 13 13 6 4 4 7 7 5 9 9 5 6 6 4 17 23 27 33 37 40 43 45 67 56 49 56 56 62 71 70 61 63 52
4 6 4 9 9 10 8 9 5 10 5 7 9 6 9 8 10 5 8 5 5 6 5 8 7 18 20 29 33 37 39 40 48 60 57 53 54 66 70 48 45 41 33 35
6 7 7 11 15 9 6 6 8 7 6 9 8 9 12 7 8 4 5 6 6 9 9 10 17 18 23 31 33 35 37 42 40 69 58 54 62 68 43 31 25 19 12 12
7 11 9 15 12 15 17 19 18 11 10 7 10 6 6 10 6 10 13 6 9 10 8 19 22 20 25 29 30 30 33 34 38 56 46 55 75 57 41 35 38 31 24 18
8 12 20 26 23 19 16 10 12 8 11 7 6 4 6 3 8 8 6 8 13 23 31 30 21 20 24 22 23 23 29 30 33 49 50 33 42 40 46 52 45 36 36 33
Wind_Direction_850mb
359 358 355 353 354 1 164 211 191 174 143 186 246 211 198 206 98 74 194 277 318 247 203 213 217 197 326 30 217 190 214 244 237 238 118 305 282 278 246 255 236 236 287 279
359 360 359 356 356 3 136 197 102 160 190 209 190 153 144 63 177 54 320 173 337 314 187 217 232 179 107 30 223 205 180 229 240 225 190 206 231 227 247 264 272 263 275 270
358 1 2 359 357 2 86 279 183 139 78 30 255 179 171 147 61 75 52 47 235 221 211 107 174 182 132 68 32 8 233 254 252 270 308 20 207 203 221 279 271 270 259 282
358 2 5 6 2 1 95 17 70 352 158 103 119 230 244 185 148 53 29 170 86 296 239 231 215 225 187 168 68 230 271 256 258 268 281 280 276 277 270 260 259 271 289 296
359 4 8 13 14 13 57 28 331 78 94 120 193 171 106 206 134 333 151 258 327 303 265 325 311 315 236 280 217 255 247 262 268 263 265 268 266 263 262 261 266 272 274 277
358 6 11 17 27 45 51 42 44 334 132 160 225 89 130 129 271 103 82 332 282 245 44 320 306 289 288 285 287 268 268 271 242 263 269 274 267 258 251 254 262 273 278 309
355 4 13 20 28 38 40 39 38 297 105 252 68 139 152 182 233 289 223 307 274 28 316 292 266 262 258 257 250 245 254 252 270 267 276 255 266 302 313 287 281 292 282 272
351 357 10 20 25 32 37 33 42 1 107 98 126 135 127 198 196 238 262 256 297 313 291 266 256 243 249 247 242 239 245 251 258 251 243 256 268 258 242 271 266 186 270 249
350 350 0 16 22 24 34 29 39 42 245 79 69 153 15 283 156 165 178 206 304 269 258 223 241 241 244 224 209 269 244 228 251 239 250 261 73 46 26 277 257 33 355 315
345 347 350 4 15 21 32 25 30 29 53 110 110 39 360 332 290 293 160 29 189 211 231 242 249 253 210 251 238 188 212 221 229 232 251 254 348 12 321 252 6 347 336 321
341 341 346 354 8 16 27 13 24 43 339 154 176 89 193 268 297 303 85 212 185 209 240 271 239 266 265 280 264 286 244 225 233 237 259 260 35 227 264 5 332 323 317 311
339 335 334 345 8 11 18 13 2 359 127 158 239 226 241 212 209 344 72 30 60 30 272 226 285 243 234 279 269 165 255 286 300 298 274 80 30 10 338 319 309 321 320 307
337 331 326 323 359 7 9 6 359 18 352 152 144 126 98 153 203 197 283 109 78 115 9 332 305 264 289 270 258 277 255 264 269 278 259 278 317 296 298 302 301 298 295 292
331 331 318 295 330 5 3 8 20 30 352 293 127 197 305 256 221 216 220 228 48 295 280 274 276 274 257 281 304 288 285 299 273 274 281 287 282 289 297 301 294 292 292 286
325 321 306 255 310 359 9 63 84 41 34 330 356 93 119 85 138 181 207 221 247 268 246 236 254 267 286 266 264 272 266 265 264 275 297 293 288 289 289 288 293 292 285 280
317 311 262 210 265 355 76 244 8 9 27 3 261 282 174 199 196 224 229 234 237 243 263 274 264 264 280 269 265 278 289 278 292 298 293 289 290 286 283 282 282 287 290 288
308 289 254 272 326 119 212 327 258 0 20 15 246 162 180 210 227 222 219 219 233 245 265 255 272 275 214 269 267 268 280 307 309 294 296 289 286 288 295 292 287 287 285 283
295 290 299 332 350 117 86 126 170 327 40 41 285 134 175 187 191 206 207 228 229 229 264 281 262 279 229 253 257 287 310 308 298 294 291 289 290 288 285 285 285 283 280 279
295 278 154 103 106 117 209 271 262 183 175 296 261 264 104 191 224 284 225 253 254 163 249 246 252 248 222 267 299 269 322 311 301 301 296 297 298 288 286 289 292 288 283 277
103 125 88 152 161 207 269 24 167 192 217 224 250 307 138 294 331 237 281 205 273 272 201 294 239 257 306 346 327 308 312 313 308 308 303 303 301 307 290 285 290 291 286 282
117 99 107 168 338 156 237 220 225 218 221 209 228 245 298 245 287 330 292 323 303 267 137 275 250 296 304 297 302 312 318 317 310 305 304 305 300 297 286 291 289 287 282 275
198 204 187 199 231 219 248 203 155 214 231 173 211 182 216 240 243 260 228 268 211 256 70 259 257 16 340 326 321 320 322 318 319 320 313 304 306 298 299 297 292 289 280 270
236 203 206 194 176 256 224 189 181 207 182 185 188 189 233 202 221 241 259 234 230 349 235 250 299 327 312 318 319 322 323 326 329 333 327 319 311 314 309 302 292 285 274 261
248 220 275 228 195 230 214 211 96 99 182 183 230 200 198 188 218 217 251 249 253 253 261 248 279 342 313 321 323 323 323 331 336 331 326 329 328 323 324 314 307 300 275 245
250 222 239 229 244 261 247 253 243 229 245 260 243 235 212 184 244 198 293 238 245 222 240 284 333 320 316 322 326 324 326 330 332 349 343 342 333 335 342 342 332 331 319 259
238 233 258 248 265 250 231 237 247 240 234 250 242 238 236 219 235 189 218 231 227 257 289 307 318 314 318 319 318 321 332 335 343 359 345 354 353 13 19 27 30 25 12 344
233 240 243 260 284 281 283 265 271 219 233 254 218 213 220 220 239 227 219 242 302 325 311 311 311 309 315 316 313 326 338 334 341 351 356 7 13 6 12 17 16 12 15 8